1536544800.55,51641,17.44,74414.3,-1.05,-17.93,-18.11,0,*56
1536544801.76,51642,17.44,74414.5,-1.07,-17.87,-18.17,0,*54
1536544803.0,51643,17.44,74410.0,-1.07,-17.73,-17.97,0,*59
1536544804.26,51644,17.44,74408.8,-1.05,-17.63,-17.83,0,*58
1536544805.46,51645,17.44,74408.3,-1.07,-17.87,-18.17,0,*53
1536544806.7,51646,17.44,74414.5,-1.07,-17.97,-18.25,0,*50
1536544807.95,51647,17.44,74414.5,-1.05,-17.93,-18.21,0,*53
1536544809.19,51648,17.44,74410.3,-1.07,-17.97,-18.25,0,*5E
1536544810.39,51649,17.44,74408.0,-1.07,-17.87,-18.17,0,*5F
1536544811.6,51650,17.44,74414.3,-1.11,-17.87,-18.17,0,*50
1536544812.81,51651,17.44,74412.5,-1.11,-17.87,-18.17,0,*51
1536544814.02,51652,17.44,74414.5,-1.11,-17.69,-17.87,0,*54
1536544815.25,51653,17.44,74410.3,-1.11,-17.55,-17.73,0,*51
1536544816.48,51654,17.44,74410.5,-1.11,-17.73,-18.01,0,*58
1536544817.73,51655,17.44,74412.0,-1.05,-17.79,-18.07,0,*50
1536544818.96,51656,17.44,74414.5,-1.11,-17.97,-18.25,0,*56
1536544820.18,51657,17.44,74408.3,-1.11,-17.87,-18.11,0,*51
1536544821.41,51658,17.44,74414.5,-1.11,-17.97,-18.17,0,*59
1536544822.63,51659,17.44,74412.5,-1.11,-17.87,-18.11,0,*5F
1536544823.86,51660,17.44,74410.3,-1.11,-17.73,-18.01,0,*5F
1536544825.09,51661,17.44,74408.5,-1.11,-17.69,-17.97,0,*55
1536544826.31,51662,17.44,74412.3,-1.11,-17.87,-18.11,0,*57
1536544827.52,51663,17.44,74408.5,-1.11,-17.87,-18.11,0,*56
1536544828.73,51664,17.44,74414.3,-1.11,-17.87,-18.11,0,*51
1536544829.97,51665,17.44,74410.5,-1.11,-17.83,-17.97,0,*55
1536544831.2,51666,17.44,74410.0,-1.11,-17.79,-18.07,0,*55
1536544832.46,51667,17.44,74410.3,-1.13,-17.93,-18.17,0,*53
1536544833.69,51668,17.44,74412.0,-1.11,-17.73,-17.97,0,*57
1536544834.93,51669,17.44,74408.8,-1.11,-17.41,-17.69,0,*56
1536544836.17,51670,17.44,74412.3,-1.11,-17.25,-17.49,0,*5E
1536544837.4,51671,17.44,74412.0,-1.11,-17.41,-17.69,0,*5F
1536544838.64,51672,17.44,74410.8,-1.11,-17.69,-17.97,0,*57
1536544839.85,51673,17.44,74410.5,-1.11,-17.49,-17.73,0,*5E
1536544841.05,51674,17.44,74410.0,-1.11,-17.49,-17.73,0,*59
1536544842.29,51675,17.44,74414.5,-1.11,-17.69,-17.97,0,*50
1536544843.52,51676,17.44,74412.8,-1.11,-17.83,-18.01,0,*57
1536544844.76,51677,17.44,74410.3,-1.11,-17.73,-18.01,0,*59
1536544846.01,51678,17.44,74410.5,-1.13,-17.73,-17.93,0,*50
1536544847.24,51679,17.44,74414.5,-1.13,-17.87,-18.17,0,*59
1536544848.48,51680,17.44,74414.3,-1.11,-17.73,-18.01,0,*51
1536544849.71,51681,17.44,74414.5,-1.11,-17.73,-18.01,0,*50
1536544850.96,51682,17.44,74410.8,-1.11,-17.59,-17.79,0,*5B
1536544852.2,51683,17.44,74410.8,-1.11,-17.55,-17.83,0,*53
1536544853.43,51684,17.44,74410.5,-1.11,-17.73,-18.01,0,*55
1536544854.69,51685,17.44,74414.8,-1.13,-17.73,-18.01,0,*56
1536544855.93,51686,17.44,74408.3,-1.11,-17.55,-17.83,0,*56
1536544857.19,51687,17.44,74412.5,-1.11,-17.41,-17.63,0,*5C
1536544858.45,51688,17.44,74412.8,-1.13,-17.55,-17.69,0,*5E
1536544859.68,51689,17.44,74410.5,-1.11,-17.73,-17.97,0,*58
1536544860.92,51690,17.44,74412.3,-1.11,-17.73,-17.97,0,*50
1536544862.15,51691,17.44,74410.0,-1.11,-17.63,-17.83,0,*55
1536544863.42,51692,17.44,74408.5,-1.07,-17.41,-17.63,0,*5F
1536544864.65,51693,17.44,74410.8,-1.11,-17.35,-17.63,0,*5A
1536544865.89,51694,17.44,74410.8,-1.07,-17.35,-17.55,0,*5F
1536544867.13,51695,17.44,74408.5,-1.07,-17.25,-17.49,0,*52
1536544868.39,51696,17.44,74408.3,-1.07,-17.21,-17.41,0,*5D
1536544869.66,51697,17.44,74412.0,-1.07,-17.41,-17.63,0,*5A
1536544870.9,51698,17.44,74410.8,-1.07,-17.55,-17.83,0,*5E
1536544872.13,51699,17.44,74410.8,-1.07,-17.55,-17.83,0,*5F
1536544873.37,51700,17.44,74412.3,-1.07,-17.21,-17.49,0,*5B
1536544874.61,51701,17.44,74412.3,-1.07,-17.55,-17.69,0,*5B
1536544875.84,51702,17.44,74408.8,-1.07,-17.55,-17.73,0,*53
1536544877.08,51703,17.44,74408.8,-1.07,-17.55,-17.83,0,*5D
1536544878.32,51704,17.44,74412.5,-1.07,-17.41,-17.69,0,*5B
1536544879.56,51705,17.44,74414.8,-1.07,-17.35,-17.55,0,*56
1536544880.8,51706,17.44,74410.5,-1.07,-17.35,-17.55,0,*55
1536544882.01,51707,17.44,74408.5,-1.07,-17.49,-17.69,0,*50
1536544883.27,51708,17.44,74410.8,-1.07,-17.25,-17.41,0,*5F
1536544884.53,51709,17.44,74412.3,-1.07,-17.25,-17.55,0,*5B
1536544885.77,51710,17.44,74412.0,-1.07,-17.41,-17.73,0,*55
1536544887.04,51711,17.44,74412.8,-1.07,-17.25,-17.63,0,*57
1536544888.3,51712,17.44,74410.8,-1.07,-17.41,-17.63,0,*56
1536544889.58,51713,17.44,74412.3,-1.05,-17.63,-17.79,0,*5E
1536544890.81,51714,17.44,74410.3,-1.07,-17.69,-17.97,0,*51
1536544892.05,51715,17.44,74410.3,-1.07,-17.73,-18.01,0,*5B
1536544893.26,51716,17.44,74414.3,-1.07,-17.73,-17.87,0,*59
1536544894.5,51717,17.44,74414.8,-1.07,-17.63,-17.87,0,*59
1536544895.73,51718,17.44,74414.5,-1.07,-17.63,-17.83,0,*52
1536544896.97,51719,17.44,74410.0,-1.07,-17.69,-17.97,0,*5C
1536544898.21,51720,17.44,74410.5,-1.07,-17.73,-17.97,0,*5D
1536544899.47,51721,17.44,74408.5,-1.07,-17.41,-17.63,0,*56
1536544900.72,51722,17.44,74410.5,-1.07,-17.35,-17.59,0,*5F
1536544901.95,51723,17.44,74410.5,-1.07,-17.35,-17.63,0,*57
1536544903.17,51724,17.44,74414.5,-1.07,-17.49,-17.69,0,*51
1536544904.4,51725,17.44,74412.8,-1.07,-17.25,-17.49,0,*58
1536544905.66,51726,17.44,74408.8,-1.07,-17.25,-17.55,0,*56
1536544906.93,51727,17.44,74410.3,-1.07,-17.21,-17.41,0,*56
1536544908.16,51728,17.44,74410.5,-1.07,-17.21,-17.49,0,*51
1536544909.38,51729,17.44,74410.3,-1.07,-17.49,-17.83,0,*58
1536544910.59,51730,17.44,74410.8,-1.07,-17.49,-17.73,0,*5F
1536544911.8,51731,17.44,74410.5,-1.07,-17.49,-17.69,0,*55
1536544913.04,51732,17.44,74412.3,-1.05,-17.49,-17.69,0,*54
1536544914.25,51733,17.44,74412.5,-1.07,-17.49,-17.83,0,*53
1536544915.51,51734,17.44,74412.0,-1.05,-17.31,-17.59,0,*5E
1536544916.8,51735,17.44,74410.5,-1.05,-17.45,-17.59,0,*5C
1536544918.03,51736,17.44,74410.8,-1.07,-17.55,-17.83,0,*5B
1536544919.27,51737,17.44,74412.8,-1.07,-17.35,-17.63,0,*52
1536544920.49,51738,17.44,74410.8,-1.07,-17.35,-17.49,0,*55
1536544921.72,51739,17.44,74408.0,-1.07,-17.21,-17.49,0,*51
1536544923.0,51740,17.44,74408.5,-1.05,-17.21,-17.55,0,*50
1536544924.27,51741,17.44,74410.5,-1.07,-17.21,-17.41,0,*56
1536544925.5,51742,17.44,74412.8,-1.07,-17.07,-17.49,0,*59
1536544926.74,51743,17.44,74410.5,-1.07,-17.35,-17.55,0,*54
1536544927.95,51744,17.44,74412.3,-1.07,-17.49,-17.73,0,*5C
1536544929.19,51745,17.44,74408.3,-1.07,-17.55,-17.73,0,*50
1536544930.43,51746,17.44,74410.3,-1.07,-17.11,-17.35,0,*51
1536544931.68,51747,17.44,74412.5,-1.07,-17.11,-17.41,0,*53
1536544932.95,51748,17.44,74410.8,-1.05,-17.17,-17.35,0,*5B
1536544934.22,51749,17.44,74408.0,-1.05,-17.07,-17.35,0,*5B
1536544935.5,51750,17.44,74410.5,-1.05,-17.17,-17.45,0,*55
1536544936.71,51751,17.44,74414.3,-1.07,-17.49,-17.73,0,*58
1536544937.97,51752,17.44,74410.3,-1.05,-17.49,-17.79,0,*53
1536544939.23,51753,17.44,74412.3,-1.05,-17.59,-17.83,0,*56
1536544940.44,51754,17.44,74410.3,-1.07,-17.49,-17.73,0,*5D
1536544941.7,51755,17.44,74410.5,-1.05,-17.21,-17.49,0,*59
1536544942.98,51756,17.44,74410.0,-1.05,-17.45,-17.63,0,*50
1536544944.21,51757,17.44,74408.8,-1.05,-17.49,-17.69,0,*57
1536544945.43,51758,17.44,74412.3,-1.07,-17.49,-17.69,0,*5A
1536544946.67,51759,17.44,74414.8,-1.07,-17.41,-17.69,0,*53
1536544947.91,51760,17.44,74410.0,-1.07,-17.55,-17.83,0,*58
1536544949.19,51761,17.44,74410.5,-1.05,-17.59,-17.79,0,*52
1536544950.42,51762,17.44,74412.8,-1.11,-17.25,-17.49,0,*5C
1536544951.68,51763,17.44,74410.5,-1.07,-17.21,-17.55,0,*53
1536544952.92,51764,17.44,74414.0,-1.07,-17.35,-17.63,0,*54
1536544954.16,51765,17.44,74410.0,-1.07,-17.21,-17.49,0,*58
1536544955.42,51766,17.44,74412.8,-1.07,-17.25,-17.41,0,*57
1536544956.68,51767,17.44,74410.5,-1.07,-17.21,-17.41,0,*52
1536544957.94,51768,17.44,74410.3,-1.07,-17.07,-17.25,0,*5B
1536544959.21,51769,17.44,74414.3,-1.05,-16.79,-17.07,0,*50
1536544960.47,51770,17.44,74412.5,-1.05,-16.89,-17.07,0,*57
1536544961.76,51771,17.44,74410.0,-1.05,-17.17,-17.45,0,*56
1536544963.02,51772,17.44,74410.3,-1.07,-17.25,-17.63,0,*52
1536544964.28,51773,17.44,74410.3,-1.05,-17.35,-17.59,0,*59
1536544965.51,51774,17.44,74408.5,-1.05,-17.31,-17.49,0,*5B
1536544966.78,51775,17.44,74410.8,-1.03,-17.45,-17.59,0,*5E
1536544968.06,51776,17.44,74408.5,-1.05,-17.17,-17.45,0,*51
1536544969.32,51777,17.44,74412.0,-1.05,-17.21,-17.49,0,*59
1536544970.6,51778,17.44,74408.3,-1.05,-17.17,-17.45,0,*5F
1536544971.84,51779,17.44,74410.8,-1.07,-17.41,-17.73,0,*5A
1536544973.13,51780,17.44,74410.8,-1.05,-17.45,-17.63,0,*5B
1536544974.33,51781,17.44,74410.0,-1.07,-17.31,-17.49,0,*53
1536544975.57,51782,17.44,74412.3,-1.07,-17.25,-17.49,0,*55
1536544976.82,51783,17.44,74410.5,-1.05,-17.21,-17.49,0,*52
1536544978.11,51784,17.44,74410.0,-1.05,-17.45,-17.63,0,*5F
1536544979.33,51785,17.44,74412.0,-1.05,-17.31,-17.49,0,*55
1536544980.59,51786,17.44,74412.5,-1.05,-17.31,-17.45,0,*5A
1536544981.85,51787,17.44,74412.0,-1.07,-17.21,-17.55,0,*59
1536544983.08,51788,17.44,74412.3,-1.05,-17.31,-17.49,0,*58
1536544984.33,51789,17.44,74414.5,-1.05,-17.21,-17.49,0,*58
1536544985.54,51790,17.38,74408.3,-1.07,-17.49,-17.73,0,*55
1536544986.8,51791,17.44,74408.8,-1.05,-17.35,-17.63,0,*5C
1536544988.09,51792,17.44,74410.8,-1.05,-17.45,-17.59,0,*51
1536544989.32,51793,17.44,74410.5,-1.07,-17.55,-17.69,0,*50
1536544990.56,51794,17.44,74408.3,-1.05,-17.49,-17.69,0,*58
1536544991.82,51795,17.44,74410.0,-1.11,-17.41,-17.63,0,*5E
1536544993.04,51796,17.44,74412.5,-1.07,-17.49,-17.83,0,*5C
1536544994.25,51797,17.44,74408.8,-1.07,-17.49,-17.69,0,*59
1536544995.48,51798,17.44,74410.8,-1.07,-17.63,-17.73,0,*55
1536544996.69,51799,17.44,74414.5,-1.07,-17.69,-17.83,0,*51
1536544997.93,51800,17.44,74414.5,-1.07,-17.55,-17.83,0,*51
1536544999.17,51801,17.44,74410.8,-1.07,-17.55,-17.83,0,*50
1536545000.41,51802,17.44,74408.5,-1.07,-17.55,-17.73,0,*5C
1536545001.62,51803,17.44,74410.8,-1.07,-17.69,-17.83,0,*5D
1536545002.83,51804,17.44,74408.5,-1.11,-17.49,-17.73,0,*50
1536545004.09,51805,17.44,74408.0,-1.11,-17.21,-17.55,0,*5B
1536545005.32,51806,17.44,74410.8,-1.11,-17.21,-17.49,0,*55
1536545006.55,51807,17.44,74412.5,-1.11,-17.25,-17.49,0,*50
1536545007.79,51808,17.44,74410.3,-1.11,-17.41,-17.69,0,*5F
1536545009.05,51809,17.44,74410.8,-1.13,-17.55,-17.73,0,*52
1536545010.31,51810,17.44,74414.3,-1.07,-17.41,-17.63,0,*5B
1536545011.57,51811,17.44,74408.3,-1.13,-17.31,-17.55,0,*5D
1536545012.8,51812,17.38,74410.3,-1.11,-17.21,-17.49,0,*50
1536545014.03,51813,17.44,74412.5,-1.11,-17.21,-17.49,0,*51
1536545015.27,51814,17.44,74412.8,-1.11,-17.07,-17.35,0,*59
1536545016.51,51815,17.44,74410.3,-1.11,-16.97,-17.21,0,*55
1536545017.75,51816,17.44,74408.0,-1.07,-17.11,-17.35,0,*5B
1536545019.01,51817,17.44,74410.5,-1.11,-17.21,-17.41,0,*5D
1536545020.27,51818,17.44,74412.5,-1.11,-17.25,-17.41,0,*56
1536545021.51,51819,17.44,74412.8,-1.11,-17.21,-17.35,0,*50
1536545022.75,51820,17.44,74414.5,-1.11,-17.07,-17.35,0,*5E
1536545023.99,51821,17.44,74412.5,-1.11,-17.11,-17.35,0,*58
1536545025.25,51822,17.38,74406.8,-1.11,-17.07,-17.41,0,*5F
1536545026.5,51823,17.44,74414.5,-1.11,-17.11,-17.25,0,*5B
1536545027.76,51824,17.44,74410.3,-1.11,-17.11,-17.41,0,*5E
1536545028.99,51825,17.44,74410.8,-1.11,-17.21,-17.49,0,*54
1536545030.28,51826,17.44,74410.0,-1.13,-17.21,-17.41,0,*5D
1536545031.53,51827,17.44,74410.5,-1.11,-17.11,-17.25,0,*5F
1536545032.79,51828,17.44,74414.0,-1.05,-16.93,-17.17,0,*5F
1536545034.03,51829,17.44,74410.3,-1.11,-17.07,-17.35,0,*57
1536545035.31,51830,17.44,74410.5,-1.05,-17.03,-17.21,0,*5B
1536545036.57,51831,17.44,74412.8,-1.07,-17.11,-17.25,0,*5F
1536545037.83,51832,17.44,74410.3,-1.07,-17.11,-17.41,0,*5E
1536545039.09,51833,17.44,74412.3,-1.07,-17.11,-17.41,0,*5F
1536545040.32,51834,17.44,74412.5,-1.07,-17.11,-17.49,0,*50
1536545041.6,51835,17.44,74410.8,-1.05,-17.21,-17.45,0,*5C
1536545042.85,51836,17.44,74412.3,-1.07,-17.07,-17.35,0,*5E
1536545044.08,51837,17.44,74408.3,-1.07,-17.25,-17.49,0,*54
1536545045.32,51838,17.44,74410.8,-1.07,-17.35,-17.63,0,*52
1536545046.58,51839,17.44,74408.5,-1.11,-17.21,-17.41,0,*51
1536545047.84,51840,17.44,74408.5,-1.11,-17.21,-17.41,0,*5F
1536545049.1,51841,17.44,74412.0,-1.07,-17.25,-17.55,0,*58
1536545050.32,51842,17.44,74408.8,-1.07,-17.35,-17.49,0,*57
1536545051.58,51843,17.44,74408.5,-1.07,-17.41,-17.55,0,*58
1536545052.81,51844,17.44,74408.8,-1.11,-17.25,-17.49,0,*57
1536545054.05,51845,17.44,74414.8,-1.11,-17.07,-17.35,0,*5D
1536545055.3,51846,17.44,74410.8,-1.11,-17.07,-17.35,0,*5E
1536545056.54,51847,17.44,74410.8,-1.11,-17.21,-17.35,0,*5B
1536545057.82,51848,17.44,74412.0,-1.13,-17.25,-17.45,0,*55
1536545059.08,51849,17.44,74408.0,-1.07,-17.07,-17.25,0,*57
1536545060.33,51850,17.44,74410.3,-1.11,-16.83,-17.07,0,*55
1536545061.56,51851,17.44,74410.8,-1.11,-16.97,-17.21,0,*55
1536545062.8,51852,17.44,74412.3,-1.11,-16.83,-17.07,0,*57
1536545064.03,51853,17.44,74412.5,-1.11,-16.93,-17.11,0,*50
1536545065.27,51854,17.44,74408.3,-1.11,-16.97,-17.25,0,*54
1536545066.52,51855,17.44,74412.8,-1.11,-17.11,-17.41,0,*58
1536545067.78,51856,17.44,74408.5,-1.11,-17.21,-17.41,0,*58
1536545069.02,51857,17.44,74412.3,-1.11,-17.21,-17.49,0,*51
1536545070.28,51858,17.44,74408.0,-1.11,-17.41,-17.55,0,*55
1536545071.53,51859,17.44,74410.5,-1.13,-17.31,-17.55,0,*51
1536545072.77,51860,17.44,74408.5,-1.11,-17.25,-17.49,0,*51
1536545074.0,51861,17.44,74412.3,-1.11,-17.35,-17.55,0,*5C
1536545075.27,51862,17.44,74412.3,-1.13,-17.45,-17.69,0,*55
1536545076.48,51863,17.44,74408.5,-1.11,-17.35,-17.69,0,*51
1536545077.74,51864,17.44,74410.3,-1.13,-17.31,-17.59,0,*53
1536545079.02,51865,17.44,74410.8,-1.13,-17.25,-17.55,0,*5B
1536545080.31,51866,17.44,74408.5,-1.13,-17.25,-17.45,0,*59
1536545081.57,51867,17.44,74410.5,-1.13,-17.31,-17.55,0,*5C
1536545082.86,51868,17.44,74414.3,-1.13,-17.41,-17.59,0,*58
1536545084.12,51869,17.44,74412.5,-1.11,-17.21,-17.41,0,*54
1536545085.41,51870,17.44,74410.8,-1.13,-17.17,-17.45,0,*5F
1536545086.7,51871,17.44,74408.8,-1.13,-17.17,-17.45,0,*5E
1536545087.99,51872,17.44,74412.3,-1.13,-17.41,-17.59,0,*53
1536545089.25,51873,17.44,74412.5,-1.13,-17.31,-17.59,0,*55
1536545090.53,51874,17.44,74412.3,-1.13,-17.11,-17.41,0,*59
1536545091.82,51875,17.44,74414.5,-1.13,-17.17,-17.45,0,*5A
1536545093.06,51876,17.44,74412.0,-1.15,-17.31,-17.45,0,*5B
1536545094.26,51877,17.44,74410.5,-1.15,-17.31,-17.69,0,*54
1536545095.53,51878,17.44,74410.3,-1.15,-17.41,-17.59,0,*5F
1536545096.8,51879,17.44,74412.5,-1.15,-17.25,-17.41,0,*55
1536545097.99,51880,17.44,74414.0,-1.17,-17.31,-17.49,0,*5C
1536545099.26,51881,17.44,74414.0,-1.15,-17.25,-17.45,0,*56
1536545100.52,51882,17.44,74412.0,-1.15,-17.17,-17.45,0,*54
1536545101.77,51883,17.44,74410.0,-1.17,-17.21,-17.45,0,*52
1536545103.01,51884,17.44,74414.3,-1.15,-16.97,-17.17,0,*5C
1536545104.24,51885,17.44,74412.5,-1.15,-16.97,-17.17,0,*5D
1536545105.48,51886,17.38,74408.0,-1.15,-17.17,-17.31,0,*53
1536545106.71,51887,17.44,74412.5,-1.17,-17.21,-17.49,0,*5A
1536545107.97,51888,17.44,74410.8,-1.15,-17.17,-17.41,0,*5A
1536545109.23,51889,17.44,74408.5,-1.15,-17.11,-17.41,0,*5D
1536545110.49,51890,17.44,74408.5,-1.15,-17.11,-17.45,0,*51
1536545111.78,51891,17.44,74412.3,-1.13,-17.11,-17.45,0,*56
1536545113.01,51892,17.38,74410.3,-1.15,-16.97,-17.17,0,*5B
1536545114.22,51893,17.44,74412.3,-1.15,-16.83,-16.97,0,*56
1536545115.46,51894,17.44,74412.0,-1.15,-16.83,-17.03,0,*5D
1536545116.72,51895,17.38,74410.3,-1.13,-17.03,-17.31,0,*52
1536545118.01,51896,17.44,74412.0,-1.13,-17.17,-17.45,0,*57
1536545119.3,51897,17.44,74412.5,-1.13,-17.17,-17.55,0,*57
1536545120.59,51898,17.44,74414.3,-1.13,-17.17,-17.41,0,*5D
1536545121.85,51899,17.44,74410.8,-1.15,-17.11,-17.41,0,*5C
1536545123.11,51900,17.44,74412.0,-1.15,-17.11,-17.17,0,*5E
1536545124.35,51901,17.44,74412.0,-1.15,-16.97,-17.11,0,*56
1536545125.59,51902,17.44,74410.5,-1.15,-16.83,-17.03,0,*53
1536545126.85,51903,17.44,74414.3,-1.15,-17.03,-17.25,0,*5F
1536545128.08,51904,17.44,74412.5,-1.15,-17.03,-17.31,0,*5D
1536545129.31,51905,17.44,74414.0,-1.15,-17.03,-17.31,0,*5C
1536545130.55,51906,17.44,74414.3,-1.15,-16.97,-17.17,0,*57
1536545131.79,51907,17.44,74414.8,-1.15,-16.83,-17.11,0,*55
1536545133.05,51908,17.44,74412.5,-1.13,-16.89,-17.17,0,*50
1536545134.3,51909,17.44,74412.8,-1.13,-17.03,-17.31,0,*56
1536545135.56,51910,17.44,74412.3,-1.15,-17.11,-17.45,0,*58
1536545136.82,51911,17.44,74416.0,-1.15,-17.03,-17.17,0,*5D
1536545138.09,51912,17.44,74412.5,-1.15,-17.03,-17.17,0,*5E
1536545139.35,51913,17.44,74408.3,-1.15,-17.03,-17.25,0,*5E
1536545140.58,51914,17.44,74412.8,-1.15,-16.97,-17.17,0,*54
1536545141.84,51915,17.38,74408.8,-1.15,-17.03,-17.25,0,*58
1536545143.07,51916,17.38,74410.0,-1.15,-17.03,-17.31,0,*5E
1536545144.34,51917,17.44,74414.3,-1.15,-17.03,-17.25,0,*5A
1536545145.57,51918,17.38,74408.0,-1.15,-16.83,-17.03,0,*58
1536545146.81,51919,17.44,74408.3,-1.13,-16.83,-16.97,0,*53
1536545148.07,51920,17.44,74414.3,-1.13,-16.89,-17.17,0,*5A
1536545149.36,51921,17.44,74414.5,-1.13,-17.17,-17.41,0,*5E
1536545150.63,51922,17.44,74410.5,-1.15,-17.17,-17.45,0,*5F
1536545151.89,51923,17.38,74410.0,-1.15,-17.11,-17.45,0,*58
1536545153.11,51924,17.44,74414.3,-1.17,-17.17,-17.49,0,*57
1536545154.35,51925,17.44,74412.3,-1.15,-17.11,-17.31,0,*5D
1536545155.58,51926,17.44,74414.3,-1.15,-16.97,-17.11,0,*53
1536545156.82,51927,17.44,74412.8,-1.15,-16.83,-17.11,0,*57
1536545158.06,51928,17.44,74412.8,-1.15,-16.75,-17.03,0,*52
1536545159.3,51929,17.44,74412.5,-1.15,-16.83,-17.11,0,*59
1536545160.54,51930,17.44,74412.0,-1.15,-16.97,-17.17,0,*52
1536545161.8,51931,17.44,74412.0,-1.15,-17.03,-17.25,0,*5E
1536545163.03,51932,17.44,74412.5,-1.15,-17.03,-17.31,0,*58
1536545164.26,51933,17.44,74410.8,-1.15,-16.97,-17.25,0,*50
1536545165.52,51934,17.44,74412.8,-1.17,-17.03,-17.21,0,*5D
1536545166.72,51935,17.44,74412.8,-1.15,-16.97,-17.31,0,*53
1536545167.96,51936,17.44,74412.5,-1.15,-16.89,-17.03,0,*5E
1536545169.2,51937,17.44,74414.0,-1.15,-16.89,-17.11,0,*5C
1536545170.44,51938,17.44,74412.5,-1.15,-16.89,-17.11,0,*53
1536545171.67,51939,17.44,74414.5,-1.15,-17.03,-17.31,0,*53
1536545172.9,51940,17.38,74410.0,-1.17,-17.07,-17.35,0,*5F
1536545174.17,51941,17.44,74412.5,-1.15,-17.03,-17.17,0,*58
1536545175.39,51942,17.44,74410.3,-1.17,-17.07,-17.31,0,*59
1536545176.65,51943,17.44,74414.5,-1.15,-17.11,-17.41,0,*5A
1536545177.91,51944,17.44,74412.0,-1.15,-17.11,-17.41,0,*5D
1536545179.18,51945,17.44,74412.0,-1.15,-17.17,-17.45,0,*5E
1536545180.44,51946,17.38,74408.0,-1.15,-17.03,-17.17,0,*5F
1536545181.66,51947,17.44,74410.8,-1.17,-17.03,-17.31,0,*58
1536545182.92,51948,17.38,74408.0,-1.15,-17.03,-17.17,0,*51
1536545184.15,51949,17.44,74412.0,-1.17,-17.03,-17.31,0,*56
1536545185.37,51950,17.44,74414.0,-1.17,-17.07,-17.31,0,*5A
1536545186.62,51951,17.44,74414.0,-1.17,-17.03,-17.21,0,*5E
1536545187.87,51952,17.44,74412.8,-1.17,-17.03,-17.21,0,*5D
1536545189.1,51953,17.44,74412.3,-1.17,-16.89,-17.17,0,*5A
1536545190.32,51954,17.44,74412.0,-1.17,-16.89,-17.17,0,*5D
1536545191.55,51955,17.44,74414.8,-1.17,-16.89,-17.17,0,*5C
1536545192.79,51956,17.44,74410.3,-1.15,-16.83,-17.03,0,*52
1536545194.02,51957,17.44,74414.0,-1.17,-16.75,-17.03,0,*58
1536545195.25,51958,17.44,74412.8,-1.15,-16.69,-16.97,0,*54
1536545196.49,51959,17.38,74410.0,-1.15,-16.83,-17.03,0,*5D
1536545197.73,51960,17.44,74412.5,-1.15,-16.69,-16.97,0,*5F
1536545198.94,51961,17.44,74412.8,-1.15,-16.75,-16.97,0,*53
1536545200.17,51962,17.38,74408.8,-1.17,-16.93,-17.07,0,*52
1536545201.43,51963,17.38,74412.0,-1.17,-17.03,-17.21,0,*5F
1536545202.66,51964,17.44,74412.0,-1.15,-16.97,-17.17,0,*53
1536545203.89,51965,17.44,74410.0,-1.17,-16.89,-17.07,0,*5E
1536545205.13,51966,17.44,74414.5,-1.15,-16.89,-17.03,0,*5B
1536545206.37,51967,17.44,74412.0,-1.15,-16.83,-17.17,0,*55
1536545207.6,51968,17.44,74412.0,-1.17,-16.89,-17.07,0,*53
1536545208.84,51969,17.38,74408.3,-1.15,-16.83,-17.03,0,*5E
1536545210.08,51970,17.44,74412.8,-1.17,-16.79,-17.07,0,*55
1536545211.32,51971,17.44,74412.0,-1.15,-16.75,-17.03,0,*5E
1536545212.55,51972,17.38,74410.0,-1.17,-16.79,-17.03,0,*53
1536545213.75,51973,17.44,74414.0,-1.17,-16.75,-16.93,0,*56
1536545214.98,51974,17.44,74414.3,-1.17,-16.75,-17.03,0,*59
1536545216.21,51975,17.44,74410.8,-1.17,-16.93,-17.07,0,*54
1536545217.45,51976,17.44,74412.8,-1.15,-16.83,-17.11,0,*53
1536545218.66,51977,17.44,74412.8,-1.17,-16.93,-17.17,0,*57
1536545219.89,51978,17.38,74408.3,-1.17,-16.93,-17.21,0,*5D
1536545221.12,51979,17.44,74414.8,-1.17,-16.79,-17.07,0,*5C
1536545222.35,51980,17.44,74414.5,-1.17,-16.79,-17.03,0,*5E
1536545223.55,51981,17.44,74414.5,-1.17,-16.75,-16.89,0,*50
1536545224.75,51982,17.44,74410.5,-1.17,-16.75,-16.93,0,*58
1536545225.99,51983,17.44,74412.5,-1.15,-16.89,-17.17,0,*55
1536545227.22,51984,17.38,74412.0,-1.17,-16.79,-17.07,0,*5E
1536545228.42,51985,17.38,74410.3,-1.17,-16.59,-16.89,0,*5A
1536545229.63,51986,17.44,74414.3,-1.17,-16.55,-16.79,0,*5A
1536545230.83,51987,17.44,74412.8,-1.17,-16.59,-16.79,0,*57
1536545232.06,51988,17.44,74414.8,-1.17,-16.79,-17.03,0,*56
1536545233.29,51989,17.44,74412.5,-1.17,-17.07,-17.35,0,*5A
1536545234.52,51990,17.44,74414.5,-1.17,-17.03,-17.31,0,*52
1536545235.74,51991,17.44,74412.8,-1.17,-17.03,-17.31,0,*53
1536545236.96,51992,17.44,74412.8,-1.17,-17.03,-17.31,0,*50
1536545238.22,51993,17.44,74412.8,-1.17,-17.07,-17.21,0,*54
1536545239.47,51994,17.44,74412.0,-1.17,-17.03,-17.17,0,*52
1536545240.73,51995,17.44,74412.3,-1.19,-16.89,-17.07,0,*5F
1536545241.99,51996,17.38,74412.3,-1.19,-16.89,-17.07,0,*5C
1536545243.24,51997,17.44,74414.0,-1.19,-16.89,-17.03,0,*59
1536545244.47,51998,17.38,74414.0,-1.19,-16.75,-16.89,0,*56
1536545245.7,51999,17.44,74414.0,-1.19,-16.75,-16.93,0,*5C
1536545246.96,52000,17.44,74414.0,-1.19,-16.79,-17.07,0,*56
1536545248.21,52001,17.44,74414.3,-1.19,-16.79,-17.03,0,*53
1536545249.42,52002,17.44,74412.0,-1.21,-16.59,-16.89,0,*5A
1536545250.67,52003,17.44,74414.5,-1.19,-16.41,-16.69,0,*57
1536545251.92,52004,17.44,74414.0,-1.19,-16.69,-16.93,0,*5F
1536545253.13,52005,17.44,74414.5,-1.17,-16.41,-16.75,0,*52
1536545254.36,52006,17.38,74408.3,-1.17,-16.41,-16.69,0,*5C
1536545255.59,52007,17.38,74412.3,-1.17,-16.45,-16.69,0,*59
1536545256.8,52008,17.38,74410.0,-1.17,-16.55,-16.79,0,*56
1536545258.04,52009,17.38,74410.8,-1.15,-16.65,-16.83,0,*53
1536545259.28,52010,17.44,74412.0,-1.15,-16.65,-16.83,0,*5B
1536545260.48,52011,17.44,74414.3,-1.17,-16.59,-16.89,0,*5D
1536545261.7,52012,17.38,74412.8,-1.17,-16.69,-16.89,0,*5D
1536545262.9,52013,17.38,74412.3,-1.17,-16.59,-16.89,0,*5F
1536545264.11,52014,17.44,74412.0,-1.17,-16.45,-16.75,0,*56
1536545265.35,52015,17.44,74414.5,-1.15,-16.51,-16.83,0,*59
1536545266.55,52016,17.44,74414.5,-1.17,-16.79,-16.93,0,*53
1536545267.77,52017,17.38,74410.8,-1.17,-16.89,-17.03,0,*55
1536545269.01,52018,17.44,74414.3,-1.17,-16.79,-17.07,0,*51
1536545270.21,52019,17.38,74412.5,-1.17,-16.79,-16.93,0,*5C
1536545271.41,52020,17.38,74414.8,-1.17,-16.75,-16.89,0,*51
1536545272.63,52021,17.44,74412.3,-1.17,-16.69,-16.93,0,*56
1536545273.84,52022,17.44,74418.0,-1.15,-16.83,-16.97,0,*57
1536545275.07,52023,17.44,74412.8,-1.17,-16.79,-17.03,0,*5D
1536545276.33,52024,17.38,74410.0,-1.19,-16.79,-17.07,0,*50
1536545277.59,52025,17.44,74412.3,-1.19,-16.79,-17.03,0,*55
1536545278.85,52026,17.38,74412.5,-1.19,-16.75,-17.03,0,*5A
1536545280.11,52027,17.44,74412.0,-1.19,-16.79,-17.07,0,*53
1536545281.36,52028,17.44,74416.5,-1.19,-16.79,-17.03,0,*58
1536545282.57,52029,17.38,74412.5,-1.21,-16.75,-16.93,0,*56
1536545283.77,52030,17.38,74414.0,-1.17,-16.59,-16.79,0,*51
1536545284.99,52031,17.38,74412.0,-1.17,-16.69,-16.93,0,*57
1536545286.22,52032,17.44,74416.0,-1.17,-16.93,-17.07,0,*5D
1536545287.47,52033,17.44,74414.8,-1.19,-16.93,-17.17,0,*53
1536545288.7,52034,17.38,74414.0,-1.21,-16.97,-17.21,0,*5E
1536545289.95,52035,17.44,74412.8,-1.19,-16.93,-17.21,0,*50
1536545291.18,52036,17.44,74418.3,-1.21,-16.83,-17.11,0,*5A
1536545292.41,52037,17.44,74414.0,-1.21,-16.83,-17.11,0,*5B
1536545293.64,52038,17.44,74414.5,-1.21,-16.83,-17.11,0,*54
1536545294.87,52039,17.44,74414.8,-1.19,-16.79,-16.93,0,*50
1536545296.07,52040,17.44,74412.3,-1.21,-16.79,-16.97,0,*51